This is the latest recevied weather packets stored in our database for station/object K6CEG. If no packets are shown the sender has not sent any weather packets the latest 10 day(s).
| Time | Temp. | Humidity | Pressure | Rain* | Wind** | Luminosity | Snow |
|---|---|---|---|---|---|---|---|
| 1788653253 | 31.11° C | 32% | 1014 hPa | 0 mm | - | 79 W/m² | - |
| 1788652952 | 31.67° C | 33% | 1013.9 hPa | 0 mm | - | 103 W/m² | - |
| 1788652647 | 31.11° C | 34% | 1013.8 hPa | 0 mm | - | 101 W/m² | - |
| 1788652347 | 31.67° C | 34% | 1013.6 hPa | 0 mm | - | 101 W/m² | - |
| 1788652043 | 31.67° C | 33% | 1013.9 hPa | 0 mm | - | 87 W/m² | - |
| 1788651738 | 32.22° C | 32% | 1013.9 hPa | 0 mm | - | 78 W/m² | - |
| 1788651433 | 32.78° C | 30% | 1013.9 hPa | 0 mm | - | 90 W/m² | - |
| 1788651132 | 32.22° C | 30% | 1013.5 hPa | 0 mm | - | 92 W/m² | - |
| 1788650827 | 32.22° C | 30% | 1013.6 hPa | 0 mm | - | 75 W/m² | - |
| 1788650523 | 32.22° C | 30% | 1014 hPa | 0 mm | - | 96 W/m² | - |
| 1788650219 | 32.22° C | 29% | 1013.7 hPa | 0 mm | - | 119 W/m² | - |
| 1788649914 | 32.78° C | 30% | 1013.9 hPa | 0 mm | - | 93 W/m² | - |
| 1788649610 | 32.78° C | 30% | 1013.9 hPa | 0 mm | - | 95 W/m² | - |
| 1788649308 | 32.78° C | 28% | 1013.8 hPa | 0 mm | - | 75 W/m² | - |
| 1788649007 | 33.33° C | 27% | 1013.8 hPa | 0 mm | - | 55 W/m² | - |
| 1788648702 | 33.33° C | 27% | 1013.8 hPa | 0 mm | - | 43 W/m² | - |
| 1788648401 | 33.33° C | 26% | 1013.9 hPa | 0 mm | - | 46 W/m² | - |
| 1788648096 | 32.78° C | 27% | 1013.9 hPa | 0 mm | - | 57 W/m² | - |
| 1788647793 | 32.78° C | 26% | 1014.1 hPa | 0 mm | - | 429 W/m² | - |
| 1788647489 | 33.33° C | 25% | 1014 hPa | 0 mm | - | 49 W/m² | - |
| 1788647185 | 33.33° C | 25% | 1014.3 hPa | 0 mm | - | 56 W/m² | - |
| 1788646880 | 33.33° C | 25% | 1014.2 hPa | 0 mm | - | 46 W/m² | - |
| 1788646576 | 33.33° C | 25% | 1014.2 hPa | 0 mm | - | 40 W/m² | - |
| 1788646272 | 33.33° C | 25% | 1014.1 hPa | 0 mm | - | 41 W/m² | - |
| 1788645967 | 32.78° C | 22% | 1014.3 hPa | 0 mm | - | 237 W/m² | - |
* Rain latest hour (hover to see other rain measurements)
** Current wind speed in m/s (hover to see current wind gust speed)